Location: D�mokoulima
(10.6000°N, 12.7000°W)
Time: 14:40:26
(UTC+00:00)

Daily predictions for brighter satellites

Satellite Brightness Start Highest point End
(mag) Time Altitude Azimuth Time Altitude Azimuth Time Altitude Azimuth
FALCON 9 R/B 2.6 19:17:05 10° WSW 19:21:06 82° SSE 19:40:56 10° ENE
Okean-O 3.0 19:21:15 10° S 19:25:40 73° WSW 19:30:04 10° NNW
Meteor 1-25 Rocket 4.3 19:20:12 10° S 19:25:51 57° E 19:31:25 10° NNE
Cosmos 1607 4.3 19:22:54 10° N 19:28:57 46° ENE 19:35:03 10° SE
SL-27 R/B 3.2 19:26:19 10° NNE 19:29:12 28° ENE 19:32:05 10° SE
SEDSat Delta rocket 3.9 19:27:52 10° WNW 19:31:43 44° SSW 19:35:40 10° SE
CZ-4 R/B 4.4 19:27:52 10° SSE 19:31:59 81° ENE 19:36:05 10° N
Cosmos 220 Rocket 4.1 19:30:30 10° S 19:34:46 53° ESE 19:38:59 10° NNE
Lacrosse 5 3.4 19:33:44 10° SW 19:38:23 36° WNW 19:43:02 10° N
CZ-2D R/B 3.5 19:36:02 10° SSE 19:39:45 46° ENE 19:43:27 10° N
Cosmos 1862 Rocket 3.6 19:38:30 10° N 19:42:47 57° E 19:47:06 10° SSE
Cosmos 2242 Rocket 4.4 19:39:40 10° NNE 19:43:37 29° E 19:47:34 10° SE
GPS 2-12 Rocket1 3.0 19:41:39 10° WSW 19:46:08 78° SSE 19:49:21 19° ENE
Cosmos 1812 3.3 19:44:04 10° NNW 19:47:53 62° W 19:51:41 10° S
Cosmos 1891 Rocket 4.4 19:42:27 10° S 19:48:28 69° E 19:54:36 10° N
Cosmos 1869 Rocket 3.8 19:45:16 10° SSE 19:49:30 44° E 19:53:42 10° NNE
Cosmos 540 Rocket 4.0 19:46:41 10° SSE 19:51:15 34° E 19:55:47 10° NE
Palapa 6 Rocket 3.8 19:50:55 10° SW 19:54:35 35° SSE 19:56:46 22° ESE
H-2A R/B 4.1 19:57:37 11° NE 19:57:37 11° NE 19:57:58 10° NE
Abrixas rocket 2.4 19:51:53 10° NW 19:54:47 58° SW 19:57:37 10° SSE
CZ-2C R/B 4.4 19:50:33 10° NE 19:54:48 34° E 19:59:07 10° SSE
SL-4 R/B 2.3 19:52:57 10° NNW 19:57:19 49° NE 19:59:52 21° ESE
ATLAS 2AS CENTAUR RB 4.4 14:36:09 10° WSW 19:58:35 71° S 20:05:51 21° E
CSL-04 Rocket 3.7 19:54:30 10° SSE 20:00:04 86° ENE 20:05:36 10° N
YAOGAN 1 3.1 19:58:21 10° S 20:02:37 61° W 20:06:53 10° NNW
ATLAS 2AS CENTAUR R/B 3.7 20:02:21 10° SSE 20:08:31 28° ESE 20:10:19 26° E
GPS 2-15 Rocket1 3.5 20:04:37 10° W 20:09:11 57° SSW 20:11:44 25° SE
Centaur AC-112 4.0 20:06:52 10° NW 20:10:11 36° NE 20:13:08 26° ENE
Cosmos 1464 Rocket 4.4 20:07:43 10° SSW 20:13:58 67° W 20:20:17 10° N
NOSS 2-2 (D) 3.7 20:14:05 10° SSW 20:18:17 61° WNW 20:20:21 24° N
Intelsat 5-2 Rocket 3.9 20:16:01 10° NW 20:18:10 27° NNE 20:18:10 27° NNE
COSMOS 2455 4.0 20:15:51 10° SSE 20:19:25 24° SE 20:19:25 24° SE
APEX 3.8 20:18:33 10° SSW 20:22:05 59° WNW 20:26:18 11° N
Meteor 1-5 Rocket 4.3 20:17:47 10° SSE 20:22:49 44° E 20:23:10 44° E
GPS 2-18 Rocket1 4.2 20:25:42 10° W 20:29:12 32° NNW 20:29:13 32° NNW
HJ-1C 3.9 20:27:36 10° S 20:30:50 57° W 20:34:04 10° NNW
Cosmos 2034 Rocket 4.4 20:28:32 10° SSW 20:34:39 64° W 20:40:45 10° N
USA 267 4.2 20:36:31 10° NNE 20:42:33 44° NW 20:48:40 10° WSW
deb Ariane 4.4 20:30:19 10° WSW 20:44:52 46° S 20:45:48 42° SSE
Cosmos 2285 Rocket 4.1 20:40:11 10° NNW 20:46:33 76° WSW 20:52:58 10° S
Meteor 1-18 Rocket 4.1 20:42:04 10° N 20:47:51 80° E 20:53:32 10° S
Cosmos 1656 4.2 20:53:12 10° SSW 20:57:00 47° SSW 20:57:00 47° SSW
Cosmos 1634 Rocket 4.4 20:54:53 10° S 20:59:23 50° S 20:59:23 50° S
Ariane H10+ 4.4 21:00:33 10° SW 21:04:43 36° S 21:04:43 36° S
Ariane Rocket 4.5 21:09:14 10° SSW 21:13:50 35° WSW 21:18:26 10° NW
CZ-3 Stage 3 3.9 21:33:45 10° SW 22:18:47 12° ENE 22:23:51 10° ENE
ATLAS 2AS CENTAUR R/B 4.1 21:52:12 10° SW 21:57:53 37° W 21:57:53 37° W
